TimeMST,TemperatureF,Dew PointF,Humidity,Sea Level PressureIn,VisibilityMPH,Wind Direction,Wind SpeedMPH,Gust SpeedMPH,PrecipitationIn,Events,Conditions,WindDirDegrees,DateUTC
12:00 AM,-22.7,-28.8,73,-9999,-9999.0,WNW,2.3,-,N/A,,Unknown,290,2012-12-06 07:00:00
1:00 AM,-22.2,-29.0,70,-9999,-9999.0,West,5.8,-,N/A,,Unknown,260,2012-12-06 08:00:00
2:00 AM,-24.3,-30.5,73,-9999,-9999.0,West,2.3,-,N/A,,Unknown,260,2012-12-06 09:00:00
3:00 AM,-27.6,-34.2,71,-9999,-9999.0,SSW,3.5,-,N/A,,Unknown,200,2012-12-06 10:00:00
4:00 AM,-27.8,-34.8,69,-9999,-9999.0,WSW,1.2,-,N/A,,Unknown,250,2012-12-06 11:00:00
5:00 AM,-28,-34,56,,,WSW,3.5,,,,,240,2012-12-06 12:00:00
5:00 AM,-28.1,-34.4,72,-9999,-9999.0,WSW,3.5,-,N/A,,Unknown,240,2012-12-06 12:00:00
6:00 AM,-29.6,-36.8,68,-9999,-9999.0,WSW,3.5,-,N/A,,Unknown,240,2012-12-06 13:00:00
7:00 AM,-28.8,-35.5,70,-9999,-9999.0,WSW,3.5,-,N/A,,Unknown,240,2012-12-06 14:00:00
8:00 AM,-31.4,-38.6,68,-9999,-9999.0,SW,2.3,-,N/A,,Unknown,230,2012-12-06 15:00:00
9:00 AM,-30.8,-38.0,68,-9999,-9999.0,WSW,1.2,-,N/A,,Unknown,250,2012-12-06 16:00:00
10:00 AM,-30.8,-38.6,66,-9999,-9999.0,WSW,3.5,-,N/A,,Unknown,240,2012-12-06 17:00:00
11:00 AM,-25,-32,53,,,WSW,3.5,,,,,240,2012-12-06 18:00:00
11:00 AM,-25.4,-32.1,71,-9999,-9999.0,WSW,3.5,-,N/A,,Unknown,240,2012-12-06 18:00:00
12:00 PM,-22.5,-29.4,70,-9999,-9999.0,SE,2.3,-,N/A,,Unknown,140,2012-12-06 19:00:00
1:00 PM,-20.6,-27.4,71,-9999,-9999.0,SSE,3.5,-,N/A,,Unknown,150,2012-12-06 20:00:00
2:00 PM,-19.5,-26.0,72,-9999,-9999.0,Calm,Calm,-,N/A,,Unknown,0,2012-12-06 21:00:00
3:00 PM,-20.9,-27.9,70,-9999,-9999.0,West,2.3,-,N/A,,Unknown,260,2012-12-06 22:00:00
5:00 PM,-16,-21,65,,,Calm,Calm,,,,,,2012-12-07 00:00:00
5:00 PM,-15.7,-21.3,76,-9999,-9999.0,Calm,Calm,-,N/A,,Unknown,0,2012-12-07 00:00:00
6:00 PM,-13.2,-18.6,77,-9999,-9999.0,Calm,Calm,-,N/A,,Unknown,0,2012-12-07 01:00:00
7:00 PM,-13.0,-18.6,76,-9999,-9999.0,East,2.3,-,N/A,,Unknown,100,2012-12-07 02:00:00
8:00 PM,-11.7,-17.1,77,-9999,-9999.0,SSE,1.2,-,N/A,,Unknown,150,2012-12-07 03:00:00
9:00 PM,-10.7,-15.9,78,-9999,-9999.0,Calm,Calm,-,N/A,,Unknown,0,2012-12-07 04:00:00
10:00 PM,-9.8,-14.8,78,-9999,-9999.0,Calm,Calm,-,N/A,,Unknown,0,2012-12-07 05:00:00
11:00 PM,-9,-14,66,,,NW,1.2,,,,,310,2012-12-07 06:00:00
11:00 PM,-9.4,-14.3,79,-9999,-9999.0,NW,1.2,-,N/A,,Unknown,310,2012-12-07 06:00:00